Location: Bílinka
(49.3579°N, 14.3767°E)
Time: 01:44:15
(UTC+00:00)

DMSP B5D2-2 - Pass Details

Date: 28 January 2023
Orbit: 788 x 806 km, 98.3° (Epoch: 31 March)

Event Time Altitude Azimuth Distance (km) Brightness Sun altitude
Rises 16:51:33 0° 15° (NNE) 3,335 7.0 -9.9°
Reaches altitude 10° 16:53:54 10° 17° (NNE) 2,400 6.2 -10.3°
Maximum altitude 16:59:13 74° 103° (ESE) 843 4.1 -11.1°
Drops below altitude 10° 17:04:29 10° 188° (S) 2,376 6.8 -11.9°
Sets 17:06:48 0° 191° (S) 3,300 7.6 -12.3°
